Weather History for Buckhannon, WV

Change the Weather History Date:

Wednesday, May 7, 2014

  Actual Average (KEKN) Record (KEKN)
Temperature  
Mean Temperature 70 °F 56 °F  
Max Temperature 84 °F 69 °F 85 °F (1979)
Min Temperature 55 °F 43 °F 20 °F (1970)
Degree Days  
Heating Degree Days 0 10  
Month to date heating degree days 73  
Since 1 July heating degree days 5636  
Cooling Degree Days 4 0  
Month to date cooling degree days 0  
Year to date cooling degree days 3  
Growing Degree Days 20 (Base 50)    
Moisture  
Dew Point 45 °F    
Average Humidity 42    
Maximum Humidity 63    
Minimum Humidity 26    
Precipitation  
Precipitation 0.00 in 0.17 in 2.58 in (1994)
Month to date precipitation 1.07  
Year to date precipitation 15.16  
Snow  
Snow 0.00 in - - ()
Month to date snowfall  
Since 1 September snowfall  
Snow Depth -    
Sea Level Pressure  
Sea Level Pressure 30.04 in    
Wind  
Wind Speed 4 mph (WSW)    
Max Wind Speed 16 mph    
Max Gust Speed 21 mph    
Visibility 10 miles    
Events      
T = Trace of Precipitation, MM = Missing Value Source: NWS Daily Summary

Daily Weather History Graph

Daily Weather History Graph

Search for Another Location

Airport:

Trip Planner

Search our weather history database for the weather conditions in past years. The results will help you decide how hot, cold, wet, or windy it might be!

Date:

Astronomy

May. 07, 2014 Rise Set
Actual Time 6:16 AM EDT 8:19 PM EDT
Civil Twilight 5:46 AM EDT 8:49 PM EDT
Nautical Twilight 5:11 AM EDT 9:25 PM EDT
Astronomical Twilight 4:32 AM EDT 10:04 PM EDT
Moon 1:26 PM EDT (5/7) 2:10 AM EDT (5/7)
Length of Visible Light 15h 02m
Length of Day
14h 03m
First Quarter, 55% of the Moon is Illuminated
May 7
First Quarter
May 14
Full
May 21
Last Quarter
May 28
New
Jun 5
First Quarter

Hourly Weather History & Observations

Time (EDT) Temp. Heat Index Dew Point Humidity Pressure Visibility Wind Dir Wind Speed Gust Speed Precip Events Conditions
12:15 AM 60.8 °F - 35.6 °F 39% 30.02 in 10.0 mi NE 6.9 mph - N/A   Clear
12:35 AM 60.8 °F - 33.8 °F 36% 30.02 in 10.0 mi NE 6.9 mph - N/A   Scattered Clouds
12:55 AM 59.0 °F - 35.6 °F 42% 30.02 in 10.0 mi NE 5.8 mph - N/A   Overcast
1:15 AM 59.0 °F - 35.6 °F 42% 30.02 in 10.0 mi NE 5.8 mph - N/A   Mostly Cloudy
1:35 AM 59.0 °F - 35.6 °F 42% 30.02 in 10.0 mi NE 6.9 mph - N/A   Overcast
1:55 AM 59.0 °F - 35.6 °F 42% 30.02 in 10.0 mi Calm Calm - N/A   Mostly Cloudy
2:15 AM 59.0 °F - 35.6 °F 42% 30.01 in 10.0 mi Calm Calm - N/A   Overcast
2:35 AM 59.0 °F - 35.6 °F 42% 30.01 in 10.0 mi Calm Calm - N/A   Scattered Clouds
2:55 AM 57.2 °F - 37.4 °F 48% 30.01 in 10.0 mi Calm Calm - N/A   Clear
3:15 AM 57.2 °F - 37.4 °F 48% 30.01 in 10.0 mi Calm Calm - N/A   Partly Cloudy
3:35 AM 55.4 °F - 37.4 °F 51% 30.01 in 10.0 mi Calm Calm - N/A   Scattered Clouds
3:55 AM 55.4 °F - 39.2 °F 54% 30.01 in 10.0 mi Calm Calm - N/A   Mostly Cloudy
4:15 AM 55.4 °F - 37.4 °F 51% 30.01 in 10.0 mi Calm Calm - N/A   Mostly Cloudy
4:35 AM 55.4 °F - 39.2 °F 54% 30.01 in 10.0 mi Calm Calm - N/A   Mostly Cloudy
4:55 AM 55.4 °F - 39.2 °F 54% 30.01 in 10.0 mi Calm Calm - N/A   Scattered Clouds
5:15 AM 55.4 °F - 39.2 °F 54% 30.02 in 10.0 mi Calm Calm - N/A   Mostly Cloudy
5:35 AM 55.4 °F - 39.2 °F 54% 30.02 in 10.0 mi Calm Calm - N/A   Mostly Cloudy
5:55 AM 57.2 °F - 41.0 °F 55% 30.02 in 10.0 mi Calm Calm - N/A   Mostly Cloudy
6:15 AM 55.4 °F - 41.0 °F 58% 30.02 in 10.0 mi East 4.6 mph - N/A   Scattered Clouds
6:35 AM 55.4 °F - 42.8 °F 63% 30.03 in 10.0 mi Calm Calm - N/A   Scattered Clouds
6:55 AM 57.2 °F - 39.2 °F 51% 30.04 in 10.0 mi Calm Calm - N/A   Mostly Cloudy
7:15 AM 55.4 °F - 42.8 °F 63% 30.05 in 10.0 mi Calm Calm - N/A   Scattered Clouds
7:35 AM 57.2 °F - 42.8 °F 59% 30.05 in 10.0 mi Calm Calm - N/A   Scattered Clouds
7:55 AM 59.0 °F - 42.8 °F 55% 30.06 in 10.0 mi Calm Calm - N/A   Scattered Clouds
8:15 AM 59.0 °F - 44.6 °F 59% 30.05 in 10.0 mi Calm Calm - N/A   Scattered Clouds
8:35 AM 62.6 °F - 48.2 °F 59% 30.07 in 10.0 mi Calm Calm - N/A   Clear
8:55 AM 66.2 °F - 51.8 °F 60% 30.07 in 10.0 mi Calm Calm - N/A   Clear
9:15 AM 66.2 °F - 51.8 °F 60% 30.08 in 10.0 mi Calm Calm - N/A   Clear
9:35 AM 69.8 °F - 53.6 °F 56% 30.09 in 10.0 mi Calm Calm - N/A   Scattered Clouds
9:55 AM 71.6 °F - 53.6 °F 53% 30.09 in 10.0 mi SW 8.1 mph - N/A   Mostly Cloudy
10:15 AM 71.6 °F - 53.6 °F 53% 30.09 in 10.0 mi SW 13.8 mph 18.4 mph N/A   Scattered Clouds
10:35 AM 71.6 °F - 53.6 °F 53% 30.10 in 10.0 mi West 6.9 mph - N/A   Mostly Cloudy
10:55 AM 73.4 °F - 53.6 °F 50% 30.11 in 10.0 mi North 9.2 mph - N/A   Partly Cloudy
11:15 AM 71.6 °F - 53.6 °F 53% 30.11 in 10.0 mi NNE 8.1 mph - N/A   Clear
11:35 AM 73.4 °F - 53.6 °F 50% 30.10 in 10.0 mi North 4.6 mph - N/A   Clear
11:55 AM 73.4 °F - 53.6 °F 50% 30.10 in 10.0 mi ENE 3.5 mph - N/A   Clear
12:15 PM 75.2 °F - 53.6 °F 47% 30.10 in 10.0 mi ENE 4.6 mph - N/A   Clear
12:35 PM 75.2 °F - 55.4 °F 50% 30.09 in 10.0 mi NE 3.5 mph - N/A   Clear
12:55 PM 75.2 °F - 53.6 °F 47% 30.08 in 10.0 mi Calm Calm - N/A   Clear
1:15 PM 77.0 °F - 53.6 °F 44% 30.08 in 10.0 mi Calm Calm - N/A   Partly Cloudy
1:35 PM 80.6 °F 80.3 °F 53.6 °F 39% 30.06 in 10.0 mi South 16.1 mph 19.6 mph N/A   Scattered Clouds
1:55 PM 80.6 °F 80.3 °F 53.6 °F 39% 30.06 in 10.0 mi West 6.9 mph - N/A   Partly Cloudy
2:15 PM 80.6 °F - 50.0 °F 34% 30.06 in 10.0 mi SW 8.1 mph - N/A   Partly Cloudy
2:35 PM 82.4 °F - 51.8 °F 35% 30.05 in 10.0 mi West 11.5 mph - N/A   Partly Cloudy
2:55 PM 82.4 °F - 50.0 °F 32% 30.04 in 10.0 mi WSW 9.2 mph 17.3 mph N/A   Partly Cloudy
3:15 PM 82.4 °F - 50.0 °F 32% 30.04 in 10.0 mi SW 8.1 mph - N/A   Clear
3:35 PM 82.4 °F - 48.2 °F 30% 30.03 in 10.0 mi SW 8.1 mph 17.3 mph N/A   Clear
3:55 PM 82.4 °F - 48.2 °F 30% 30.03 in 10.0 mi WSW 11.5 mph 17.3 mph N/A   Clear
4:15 PM 84.2 °F - 48.2 °F 29% 30.02 in 10.0 mi West 11.5 mph - N/A   Clear
4:35 PM 82.4 °F - 46.4 °F 28% 30.02 in 10.0 mi WSW 10.4 mph 20.7 mph N/A   Clear
4:55 PM 84.2 °F - 46.4 °F 27% 30.02 in 10.0 mi SW 16.1 mph 20.7 mph N/A   Clear
5:15 PM 82.4 °F - 46.4 °F 28% 30.02 in 10.0 mi SW 9.2 mph - N/A   Clear
5:35 PM 82.4 °F - 46.4 °F 28% 30.02 in 10.0 mi WSW 11.5 mph 16.1 mph N/A   Clear
5:55 PM 84.2 °F - 46.4 °F 27% 30.02 in 10.0 mi SW 11.5 mph 16.1 mph N/A   Clear
6:15 PM 82.4 °F - 44.6 °F 26% 30.01 in 10.0 mi SW 11.5 mph - N/A   Clear
6:35 PM 82.4 °F - 44.6 °F 26% 30.01 in 10.0 mi SW 11.5 mph - N/A   Clear
6:55 PM 82.4 °F - 44.6 °F 26% 30.01 in 10.0 mi West 9.2 mph - N/A   Clear
7:15 PM 80.6 °F - 44.6 °F 28% 30.02 in 10.0 mi WSW 5.8 mph - N/A   Clear
7:35 PM 80.6 °F - 42.8 °F 26% 30.02 in 10.0 mi West 5.8 mph - N/A   Clear
7:55 PM 78.8 °F - 42.8 °F 28% 30.03 in 10.0 mi West 6.9 mph - N/A   Clear
8:15 PM 78.8 °F - 41.0 °F 26% 30.04 in 10.0 mi West 6.9 mph - N/A   Clear
8:35 PM 78.8 °F - 41.0 °F 26% 30.04 in 10.0 mi SW 5.8 mph - N/A   Clear
8:55 PM 78.8 °F - 41.0 °F 26% 30.04 in 10.0 mi West 6.9 mph - N/A   Clear
9:15 PM 77.0 °F - 39.2 °F 26% 30.04 in 10.0 mi WNW 4.6 mph - N/A   Clear
9:35 PM 75.2 °F - 39.2 °F 27% 30.04 in 10.0 mi Calm Calm - N/A   Clear
9:55 PM 75.2 °F - 41.0 °F 29% 30.05 in 10.0 mi Calm Calm - N/A   Clear
10:15 PM 73.4 °F - 41.0 °F 31% 30.06 in 10.0 mi SSE 5.8 mph - N/A   Clear
10:35 PM 71.6 °F - 42.8 °F 35% 30.06 in 10.0 mi South 3.5 mph - N/A   Clear
10:55 PM 68.0 °F - 44.6 °F 43% 30.05 in 10.0 mi Calm Calm - N/A   Clear
11:15 PM 68.0 °F - 44.6 °F 43% 30.06 in 10.0 mi SSW 3.5 mph - N/A   Clear
11:35 PM 66.2 °F - 42.8 °F 43% 30.06 in 10.0 mi SSW 4.6 mph - N/A   Clear
11:55 PM 66.2 °F - 44.6 °F 46% 30.06 in 10.0 mi South 3.5 mph - N/A   Clear